Location: Newark
(41.6500°N, 71.4833°W)
Time: 21:04:41
(UTC+00:00)

Transit 2A Rocket - Pass Details

Date: 30 January 2020
Orbit: 591 x 912 km, 66.7° (Epoch: 23 February)

Event Time Altitude Azimuth Distance (km) Brightness Sun altitude
Rises 07:16:48 0° 159° (SSE) 2,839 - -52.2°
Reaches altitude 10° 07:20:22 10° 128° (SE) 1,921 - -51.6°
Maximum altitude 07:22:01 12° 106° (ESE) 1,788 - -51.3°
Drops below altitude 10° 07:23:40 10° 83° (E) 1,923 - -51.0°
Sets 07:27:14 0° 52° (NE) 2,845 - -50.4°
